Location: Austin
(30.3000°N, 97.7500°W)
Time: 12:10:27
(UTC-05:00)

H-2A R/B - Pass Details

Date: 26 May 2023
Orbit: 573 x 648 km, 98.5° (Epoch: 31 May)

Event Time Altitude Azimuth Distance (km) Brightness Sun altitude
Rises 22:44:33 0° 27° (NNE) 2,899 5.8 -25.2°
Reaches altitude 10° 22:47:00 10° 39° (NE) 2,002 4.8 -25.5°
Enters shadow 22:47:47 14° 46° (NE) 1,746 4.4 -25.6°
